Year,Month,Day,Hour,Minute,Value (Times are PST for temperature in C)
2017,08,03,00,00,21.10
2017,08,03,00,01,21.10
2017,08,03,00,02,21.00
2017,08,03,00,03,21.00
2017,08,03,00,04,21.00
2017,08,03,00,05,21.00
2017,08,03,00,06,21.00
2017,08,03,00,07,20.90
2017,08,03,00,08,20.90
2017,08,03,00,09,20.90
2017,08,03,00,10,20.90
2017,08,03,00,11,20.90
2017,08,03,00,12,20.90
2017,08,03,00,13,20.80
2017,08,03,00,14,20.80
2017,08,03,00,15,20.80
2017,08,03,00,16,20.80
2017,08,03,00,17,20.80
2017,08,03,00,18,20.80
2017,08,03,00,19,20.80
2017,08,03,00,20,20.80
2017,08,03,00,21,20.80
2017,08,03,00,22,20.70
2017,08,03,00,23,20.70
2017,08,03,00,24,20.70
2017,08,03,00,25,20.60
2017,08,03,00,26,20.60
2017,08,03,00,27,20.60
2017,08,03,00,28,20.60
2017,08,03,00,29,20.50
2017,08,03,00,30,20.50
2017,08,03,00,31,20.50
2017,08,03,00,32,20.50
2017,08,03,00,33,20.40
2017,08,03,00,34,20.40
2017,08,03,00,35,20.40
2017,08,03,00,36,20.40
2017,08,03,00,37,20.30
2017,08,03,00,38,20.30
2017,08,03,00,39,20.30
2017,08,03,00,40,20.30
2017,08,03,00,41,20.30
2017,08,03,00,42,20.20
2017,08,03,00,43,20.20
2017,08,03,00,44,20.20
2017,08,03,00,45,20.20
2017,08,03,00,46,20.20
2017,08,03,00,47,20.20
2017,08,03,00,48,20.10
2017,08,03,00,49,20.10
2017,08,03,00,50,20.10
2017,08,03,00,51,20.10
2017,08,03,00,52,20.10
2017,08,03,00,53,20.00
2017,08,03,00,54,19.90
2017,08,03,00,55,19.90
2017,08,03,00,56,19.90
2017,08,03,00,57,19.90
2017,08,03,00,58,19.80
2017,08,03,00,59,19.80
2017,08,03,01,00,19.80
2017,08,03,01,01,19.70
2017,08,03,01,02,19.70
2017,08,03,01,03,19.70
2017,08,03,01,04,19.70
2017,08,03,01,05,19.60
2017,08,03,01,06,19.60
2017,08,03,01,07,19.60
2017,08,03,01,08,19.60
2017,08,03,01,09,19.60
2017,08,03,01,10,19.60
2017,08,03,01,11,19.60
2017,08,03,01,12,19.60
2017,08,03,01,13,19.60
2017,08,03,01,14,19.60
2017,08,03,01,15,19.50
2017,08,03,01,16,19.50
2017,08,03,01,17,19.50
2017,08,03,01,18,19.50
2017,08,03,01,19,19.50
2017,08,03,01,20,19.50
2017,08,03,01,21,19.50
2017,08,03,01,22,19.50
2017,08,03,01,23,19.50
2017,08,03,01,24,19.50
2017,08,03,01,25,19.40
2017,08,03,01,26,19.40
2017,08,03,01,27,19.40
2017,08,03,01,28,19.40
2017,08,03,01,29,19.40
2017,08,03,01,30,19.40
2017,08,03,01,31,19.30
2017,08,03,01,32,19.30
2017,08,03,01,33,19.30
2017,08,03,01,34,19.30
2017,08,03,01,35,19.30
2017,08,03,01,36,19.30
2017,08,03,01,37,19.30
2017,08,03,01,38,19.30
2017,08,03,01,39,19.20
2017,08,03,01,40,19.20
2017,08,03,01,41,19.20
2017,08,03,01,42,19.20
2017,08,03,01,43,19.20
2017,08,03,01,44,19.20
2017,08,03,01,45,19.20
2017,08,03,01,46,19.20
2017,08,03,01,47,19.20
2017,08,03,01,48,19.20
2017,08,03,01,49,19.10
2017,08,03,01,50,19.10
2017,08,03,01,51,19.10
2017,08,03,01,52,19.10
2017,08,03,01,53,19.10
2017,08,03,01,54,19.20
2017,08,03,01,55,19.20
2017,08,03,01,56,19.20
2017,08,03,01,57,19.20
2017,08,03,01,58,19.20
2017,08,03,01,59,19.30
2017,08,03,02,00,19.40
2017,08,03,02,01,19.40
2017,08,03,02,02,19.40
2017,08,03,02,03,19.50
2017,08,03,02,04,19.50
2017,08,03,02,05,19.50
2017,08,03,02,06,19.50
2017,08,03,02,07,19.50
2017,08,03,02,08,19.50
2017,08,03,02,09,19.50
2017,08,03,02,10,19.50
2017,08,03,02,11,19.50
2017,08,03,02,12,19.50
2017,08,03,02,13,19.60
2017,08,03,02,14,19.60
2017,08,03,02,15,19.80
2017,08,03,02,16,19.90
2017,08,03,02,17,19.90
2017,08,03,02,18,19.90
2017,08,03,02,19,19.90
2017,08,03,02,20,19.90
2017,08,03,02,21,19.90
2017,08,03,02,22,19.90
2017,08,03,02,23,19.90
2017,08,03,02,24,19.80
2017,08,03,02,25,19.80
2017,08,03,02,26,19.70
2017,08,03,02,27,19.70
2017,08,03,02,28,19.70
2017,08,03,02,29,19.60
2017,08,03,02,30,19.60
2017,08,03,02,31,19.60
2017,08,03,02,32,19.60
2017,08,03,02,33,19.60
2017,08,03,02,34,19.60
2017,08,03,02,35,19.60
2017,08,03,02,36,19.70
2017,08,03,02,37,19.70
2017,08,03,02,38,19.70
2017,08,03,02,39,19.70
2017,08,03,02,40,19.70
2017,08,03,02,41,19.70
2017,08,03,02,42,19.70
2017,08,03,02,43,19.70
2017,08,03,02,44,19.70
2017,08,03,02,45,19.70
2017,08,03,02,46,19.70
2017,08,03,02,47,19.70
2017,08,03,02,48,19.70
2017,08,03,02,49,19.60
2017,08,03,02,50,19.60
2017,08,03,02,51,19.60
2017,08,03,02,52,19.60
2017,08,03,02,53,19.60
2017,08,03,02,54,19.60
2017,08,03,02,55,19.60
2017,08,03,02,56,19.70
2017,08,03,02,57,19.70
2017,08,03,02,58,19.60
2017,08,03,02,59,19.60
2017,08,03,03,00,19.60
2017,08,03,03,01,19.60
2017,08,03,03,02,19.60
2017,08,03,03,03,19.70
2017,08,03,03,04,19.70
2017,08,03,03,05,19.70
2017,08,03,03,06,19.70
2017,08,03,03,07,19.70
2017,08,03,03,08,19.70
2017,08,03,03,09,19.60
2017,08,03,03,10,19.60
2017,08,03,03,11,19.60
2017,08,03,03,12,19.50
2017,08,03,03,13,19.50
2017,08,03,03,14,19.50
2017,08,03,03,15,19.50
2017,08,03,03,16,19.60
2017,08,03,03,17,19.60
2017,08,03,03,18,19.60
2017,08,03,03,19,19.60
2017,08,03,03,20,19.60
2017,08,03,03,21,19.60
2017,08,03,03,22,19.60
2017,08,03,03,23,19.60
2017,08,03,03,24,19.60
2017,08,03,03,25,19.60
2017,08,03,03,26,19.50
2017,08,03,03,27,19.50
2017,08,03,03,28,19.50
2017,08,03,03,29,19.40
2017,08,03,03,30,19.40
2017,08,03,03,31,19.40
2017,08,03,03,32,19.40
2017,08,03,03,33,19.30
2017,08,03,03,34,19.30
2017,08,03,03,35,19.30
2017,08,03,03,36,19.30
2017,08,03,03,37,19.20
2017,08,03,03,38,19.20
2017,08,03,03,39,19.20
2017,08,03,03,40,19.10
2017,08,03,03,41,19.10
2017,08,03,03,42,19.10
2017,08,03,03,43,19.10
2017,08,03,03,44,19.00
2017,08,03,03,45,18.90
2017,08,03,03,46,18.80
2017,08,03,03,47,18.70
2017,08,03,03,48,18.60
2017,08,03,03,49,18.60
2017,08,03,03,50,18.50
2017,08,03,03,51,18.50
2017,08,03,03,52,18.50
2017,08,03,03,53,18.40
2017,08,03,03,54,18.40
2017,08,03,03,55,18.30
2017,08,03,03,56,18.30
2017,08,03,03,57,18.30
2017,08,03,03,58,18.20
2017,08,03,03,59,18.20
2017,08,03,04,00,18.20
2017,08,03,04,01,18.20
2017,08,03,04,02,18.20
2017,08,03,04,03,18.20
2017,08,03,04,04,18.10
2017,08,03,04,05,18.10
2017,08,03,04,06,18.00
2017,08,03,04,07,17.90
2017,08,03,04,08,17.90
2017,08,03,04,09,17.90
2017,08,03,04,10,17.90
2017,08,03,04,11,17.80
2017,08,03,04,12,17.80
2017,08,03,04,13,17.80
2017,08,03,04,14,17.70
2017,08,03,04,15,17.70
2017,08,03,04,16,17.70
2017,08,03,04,17,17.60
2017,08,03,04,18,17.60
2017,08,03,04,19,17.60
2017,08,03,04,20,17.60
2017,08,03,04,21,17.50
2017,08,03,04,22,17.50
2017,08,03,04,23,17.50
2017,08,03,04,24,17.50
2017,08,03,04,25,17.40
2017,08,03,04,26,17.40
2017,08,03,04,27,17.40
2017,08,03,04,28,17.40
2017,08,03,04,29,17.40
2017,08,03,04,30,17.40
2017,08,03,04,31,17.40
2017,08,03,04,32,17.30
2017,08,03,04,33,17.30
2017,08,03,04,34,17.30
2017,08,03,04,35,17.30
2017,08,03,04,36,17.30
2017,08,03,04,37,17.30
2017,08,03,04,38,17.30
2017,08,03,04,39,17.30
2017,08,03,04,40,17.30
2017,08,03,04,41,17.30
2017,08,03,04,42,17.30
2017,08,03,04,43,17.30
2017,08,03,04,44,17.30
2017,08,03,04,45,17.30
2017,08,03,04,46,17.20
2017,08,03,04,47,17.20
2017,08,03,04,48,17.20
2017,08,03,04,49,17.20
2017,08,03,04,50,17.20
2017,08,03,04,51,17.10
2017,08,03,04,52,17.10
2017,08,03,04,53,17.10
2017,08,03,04,54,17.10
2017,08,03,04,55,17.10
2017,08,03,04,56,17.10
2017,08,03,04,57,17.10
2017,08,03,04,58,17.00
2017,08,03,04,59,17.00
2017,08,03,05,00,17.00
2017,08,03,05,01,17.00
2017,08,03,05,02,17.00
2017,08,03,05,03,17.00
2017,08,03,05,04,17.00
2017,08,03,05,05,17.00
2017,08,03,05,06,17.00
2017,08,03,05,07,16.90
2017,08,03,05,08,16.90
2017,08,03,05,09,16.90
2017,08,03,05,10,16.90
2017,08,03,05,11,16.90
2017,08,03,05,12,16.90
2017,08,03,05,13,16.90
2017,08,03,05,14,16.90
2017,08,03,05,15,16.90
2017,08,03,05,16,16.80
2017,08,03,05,17,16.80
2017,08,03,05,18,16.80
2017,08,03,05,19,16.80
2017,08,03,05,20,16.80
2017,08,03,05,21,16.80
2017,08,03,05,22,16.80
2017,08,03,05,23,16.80
2017,08,03,05,24,16.80
2017,08,03,05,25,16.80
2017,08,03,05,26,16.80
2017,08,03,05,27,16.80
2017,08,03,05,28,16.80
2017,08,03,05,29,16.80
2017,08,03,05,30,16.80
2017,08,03,05,31,16.80
2017,08,03,05,32,16.80
2017,08,03,05,33,16.80
2017,08,03,05,34,16.80
2017,08,03,05,35,16.80
2017,08,03,05,36,16.80
2017,08,03,05,37,16.70
2017,08,03,05,38,16.70
2017,08,03,05,39,16.70
2017,08,03,05,40,16.70
2017,08,03,05,41,16.70
2017,08,03,05,42,16.70
2017,08,03,05,43,16.70
2017,08,03,05,44,16.70
2017,08,03,05,45,16.70
2017,08,03,05,46,16.70
2017,08,03,05,47,16.70
2017,08,03,05,48,16.70
2017,08,03,05,49,16.60
2017,08,03,05,50,16.60
2017,08,03,05,51,16.60
2017,08,03,05,52,16.60
2017,08,03,05,53,16.60
2017,08,03,05,54,16.60
2017,08,03,05,55,16.60
2017,08,03,05,56,16.60
2017,08,03,05,57,16.60
2017,08,03,05,58,16.60
2017,08,03,05,59,16.60
2017,08,03,06,00,16.60
2017,08,03,06,01,16.60
2017,08,03,06,02,16.60
2017,08,03,06,03,16.60
2017,08,03,06,04,16.60
2017,08,03,06,05,16.60
2017,08,03,06,06,16.60
2017,08,03,06,07,16.60
2017,08,03,06,08,16.60
2017,08,03,06,09,16.60
2017,08,03,06,10,16.60
2017,08,03,06,11,16.60
2017,08,03,06,12,16.50
2017,08,03,06,13,16.40
2017,08,03,06,14,16.40
2017,08,03,06,15,16.40
2017,08,03,06,16,16.40
2017,08,03,06,17,16.40
2017,08,03,06,18,16.40
2017,08,03,06,19,16.40
2017,08,03,06,20,16.40
2017,08,03,06,21,16.40
2017,08,03,06,22,16.40
2017,08,03,06,23,16.40
2017,08,03,06,24,16.40
2017,08,03,06,25,16.40
2017,08,03,06,26,16.40
2017,08,03,06,27,16.40
2017,08,03,06,28,16.40
2017,08,03,06,29,16.40
2017,08,03,06,30,16.40
2017,08,03,06,31,16.40
2017,08,03,06,32,16.40
2017,08,03,06,33,16.50
2017,08,03,06,34,16.60
2017,08,03,06,35,16.60
2017,08,03,06,36,16.60
2017,08,03,06,37,16.70
2017,08,03,06,38,16.70
2017,08,03,06,39,16.70
2017,08,03,06,40,16.70
2017,08,03,06,41,16.70
2017,08,03,06,42,16.70
2017,08,03,06,43,16.70
2017,08,03,06,44,16.70
2017,08,03,06,45,16.70
2017,08,03,06,46,16.70
2017,08,03,06,47,16.70
2017,08,03,06,48,16.80
2017,08,03,06,49,16.80
2017,08,03,06,50,16.80
2017,08,03,06,51,16.80
2017,08,03,06,52,16.80
2017,08,03,06,53,16.90
2017,08,03,06,54,16.90
2017,08,03,06,55,16.90
2017,08,03,06,56,16.90
2017,08,03,06,57,17.00
2017,08,03,06,58,17.00
2017,08,03,06,59,17.10
2017,08,03,07,00,17.20
2017,08,03,07,01,17.30
2017,08,03,07,02,17.30
2017,08,03,07,03,17.30
2017,08,03,07,04,17.40
2017,08,03,07,05,17.40
2017,08,03,07,06,17.50
2017,08,03,07,07,17.60
2017,08,03,07,08,17.70
2017,08,03,07,09,17.70
2017,08,03,07,10,17.80
2017,08,03,07,11,17.90
2017,08,03,07,12,17.90
2017,08,03,07,13,17.90
2017,08,03,07,14,18.10
2017,08,03,07,15,18.10
2017,08,03,07,16,18.20
2017,08,03,07,17,18.20
2017,08,03,07,18,18.20
2017,08,03,07,19,18.30
2017,08,03,07,20,18.40
2017,08,03,07,21,18.40
2017,08,03,07,22,18.50
2017,08,03,07,23,18.50
2017,08,03,07,24,18.60
2017,08,03,07,25,18.60
2017,08,03,07,26,18.70
2017,08,03,07,27,18.70
2017,08,03,07,28,18.80
2017,08,03,07,29,18.80
2017,08,03,07,30,18.90
2017,08,03,07,31,18.90
2017,08,03,07,32,18.90
2017,08,03,07,33,18.90
2017,08,03,07,34,18.90
2017,08,03,07,35,19.00
2017,08,03,07,36,19.10
2017,08,03,07,37,19.10
2017,08,03,07,38,19.10
2017,08,03,07,39,19.20
2017,08,03,07,40,19.30
2017,08,03,07,41,19.30
2017,08,03,07,42,19.40
2017,08,03,07,43,19.50
2017,08,03,07,44,19.50
2017,08,03,07,45,19.60
2017,08,03,07,46,19.70
2017,08,03,07,47,19.80
2017,08,03,07,48,19.90
2017,08,03,07,49,19.90
2017,08,03,07,50,20.00
2017,08,03,07,51,20.10
2017,08,03,07,52,20.20
2017,08,03,07,53,20.20
2017,08,03,07,54,20.30
2017,08,03,07,55,20.40
2017,08,03,07,56,20.50
2017,08,03,07,57,20.50
2017,08,03,07,58,20.60
2017,08,03,07,59,20.60
2017,08,03,08,00,20.60
2017,08,03,08,01,20.60
2017,08,03,08,02,20.70
2017,08,03,08,03,20.70
2017,08,03,08,04,20.70
2017,08,03,08,05,20.70
2017,08,03,08,06,20.80
2017,08,03,08,07,20.80
2017,08,03,08,08,20.90
2017,08,03,08,09,20.90
2017,08,03,08,10,21.00
2017,08,03,08,11,21.10
2017,08,03,08,12,21.20
2017,08,03,08,13,21.30
2017,08,03,08,14,21.40
2017,08,03,08,15,21.60
2017,08,03,08,16,21.70
2017,08,03,08,17,21.90
2017,08,03,08,18,22.00
2017,08,03,08,19,22.00
2017,08,03,08,20,22.20
2017,08,03,08,21,22.30
2017,08,03,08,22,22.40
2017,08,03,08,23,22.50
2017,08,03,08,24,22.60
2017,08,03,08,25,22.60
2017,08,03,08,26,22.60
2017,08,03,08,27,22.60
2017,08,03,08,28,22.60
2017,08,03,08,29,22.60
2017,08,03,08,30,22.60
2017,08,03,08,31,22.60
2017,08,03,08,32,22.60
2017,08,03,08,33,22.60
2017,08,03,08,34,22.70
2017,08,03,08,35,22.70
2017,08,03,08,36,22.60
2017,08,03,08,37,22.60
2017,08,03,08,38,22.60
2017,08,03,08,39,22.60
2017,08,03,08,40,22.60
2017,08,03,08,41,22.60
2017,08,03,08,42,22.70
2017,08,03,08,43,22.70
2017,08,03,08,44,22.70
2017,08,03,08,45,22.70
2017,08,03,08,46,22.70
2017,08,03,08,47,22.70
2017,08,03,08,48,22.70
2017,08,03,08,49,22.70
2017,08,03,08,50,22.70
2017,08,03,08,51,22.60
2017,08,03,08,52,22.60
2017,08,03,08,53,22.70
2017,08,03,08,54,22.70
2017,08,03,08,55,22.70
2017,08,03,08,56,22.70
2017,08,03,08,57,22.70
2017,08,03,08,58,22.80
2017,08,03,08,59,22.80
2017,08,03,09,00,22.90
2017,08,03,09,01,22.90
2017,08,03,09,02,22.90
2017,08,03,09,03,22.90
2017,08,03,09,04,23.00
2017,08,03,09,05,23.10
2017,08,03,09,06,23.00
2017,08,03,09,07,22.90
2017,08,03,09,08,22.90
2017,08,03,09,09,22.90
2017,08,03,09,10,22.90
2017,08,03,09,11,22.90
2017,08,03,09,12,22.90
2017,08,03,09,13,22.90
2017,08,03,09,14,22.90
2017,08,03,09,15,22.90
2017,08,03,09,16,22.90
2017,08,03,09,17,22.90
2017,08,03,09,18,23.00
2017,08,03,09,19,23.10
2017,08,03,09,20,23.10
2017,08,03,09,21,23.10
2017,08,03,09,22,23.10
2017,08,03,09,23,23.20
2017,08,03,09,24,23.20
2017,08,03,09,25,23.20
2017,08,03,09,26,23.30
2017,08,03,09,27,23.30
2017,08,03,09,28,23.30
2017,08,03,09,29,23.30
2017,08,03,09,30,23.30
2017,08,03,09,31,23.30
2017,08,03,09,32,23.40
2017,08,03,09,33,23.30
2017,08,03,09,34,23.30
2017,08,03,09,35,23.30
2017,08,03,09,36,23.40
2017,08,03,09,37,23.60
2017,08,03,09,38,23.70
2017,08,03,09,39,23.70
2017,08,03,09,40,23.70
2017,08,03,09,41,23.70
2017,08,03,09,42,23.70
2017,08,03,09,43,23.80
2017,08,03,09,44,23.80
2017,08,03,09,45,23.80
2017,08,03,09,46,23.70
2017,08,03,09,47,23.70
2017,08,03,09,48,23.70
2017,08,03,09,49,23.70
2017,08,03,09,50,23.70
2017,08,03,09,51,23.70
2017,08,03,09,52,23.70
2017,08,03,09,53,23.80
2017,08,03,09,54,23.80
2017,08,03,09,55,23.80
2017,08,03,09,56,23.70
2017,08,03,09,57,23.70
2017,08,03,09,58,23.80
2017,08,03,09,59,23.80
2017,08,03,10,00,23.90
2017,08,03,10,01,23.90
2017,08,03,10,02,24.00
2017,08,03,10,03,24.10
2017,08,03,10,04,24.10
2017,08,03,10,05,24.10
2017,08,03,10,06,24.10
2017,08,03,10,07,24.20
2017,08,03,10,08,24.30
2017,08,03,10,09,24.30
2017,08,03,10,10,24.20
2017,08,03,10,11,24.20
2017,08,03,10,12,24.30
2017,08,03,10,13,24.30
2017,08,03,10,14,24.30
2017,08,03,10,15,24.30
2017,08,03,10,16,24.30
2017,08,03,10,17,24.30
2017,08,03,10,18,24.40
2017,08,03,10,19,24.40
2017,08,03,10,20,24.50
2017,08,03,10,21,24.50
2017,08,03,10,22,24.40
2017,08,03,10,23,24.40
2017,08,03,10,24,24.40
2017,08,03,10,25,24.40
2017,08,03,10,26,24.40
2017,08,03,10,27,24.40
2017,08,03,10,28,24.40
2017,08,03,10,29,24.40
2017,08,03,10,30,24.40
2017,08,03,10,31,24.40
2017,08,03,10,32,24.30
2017,08,03,10,33,24.40
2017,08,03,10,34,24.50
2017,08,03,10,35,24.50
2017,08,03,10,36,24.60
2017,08,03,10,37,24.60
2017,08,03,10,38,24.50
2017,08,03,10,39,24.50
2017,08,03,10,40,24.50
2017,08,03,10,41,24.50
2017,08,03,10,42,24.50
2017,08,03,10,43,24.50
2017,08,03,10,44,24.50
2017,08,03,10,45,24.40
2017,08,03,10,46,24.40
2017,08,03,10,47,24.50
2017,08,03,10,48,24.50
2017,08,03,10,49,24.50
2017,08,03,10,50,24.70
2017,08,03,10,51,24.80
2017,08,03,10,52,24.80
2017,08,03,10,53,24.80
2017,08,03,10,54,24.80
2017,08,03,10,55,24.80
2017,08,03,10,56,24.80
2017,08,03,10,57,24.70
2017,08,03,10,58,24.70
2017,08,03,10,59,24.70
2017,08,03,11,00,24.70
2017,08,03,11,01,24.70
2017,08,03,11,02,24.80
2017,08,03,11,03,24.80
2017,08,03,11,04,24.80
2017,08,03,11,05,24.80
2017,08,03,11,06,24.70
2017,08,03,11,07,24.70
2017,08,03,11,08,24.70
2017,08,03,11,09,24.70
2017,08,03,11,10,24.70
2017,08,03,11,11,24.80
2017,08,03,11,12,24.80
2017,08,03,11,13,24.80
2017,08,03,11,14,24.80
2017,08,03,11,15,24.80
2017,08,03,11,16,24.90
2017,08,03,11,17,24.90
2017,08,03,11,18,25.00
2017,08,03,11,19,25.10
2017,08,03,11,20,25.20
2017,08,03,11,21,25.30
2017,08,03,11,22,25.30
2017,08,03,11,23,25.40
2017,08,03,11,24,25.30
2017,08,03,11,25,25.20
2017,08,03,11,26,25.20
2017,08,03,11,27,25.10
2017,08,03,11,28,25.20
2017,08,03,11,29,25.20
2017,08,03,11,30,25.30
2017,08,03,11,31,25.30
2017,08,03,11,32,25.30
2017,08,03,11,33,25.20
2017,08,03,11,34,25.20
2017,08,03,11,35,25.30
2017,08,03,11,36,25.30
2017,08,03,11,37,25.40
2017,08,03,11,38,25.40
2017,08,03,11,39,25.50
2017,08,03,11,40,25.50
2017,08,03,11,41,25.50
2017,08,03,11,42,25.60
2017,08,03,11,43,25.60
2017,08,03,11,44,25.60
2017,08,03,11,45,25.70
2017,08,03,11,46,25.70
2017,08,03,11,47,25.80
2017,08,03,11,48,25.80
2017,08,03,11,49,25.90
2017,08,03,11,50,26.00
2017,08,03,11,51,26.10
2017,08,03,11,52,26.10
2017,08,03,11,53,26.20
2017,08,03,11,54,26.30
2017,08,03,11,55,26.40
2017,08,03,11,56,26.40
2017,08,03,11,57,26.30
2017,08,03,11,58,26.30
2017,08,03,11,59,26.30
2017,08,03,12,00,26.20
2017,08,03,12,01,26.20
2017,08,03,12,02,26.20
2017,08,03,12,03,26.20
2017,08,03,12,04,26.10
2017,08,03,12,05,26.10
2017,08,03,12,06,26.10
2017,08,03,12,07,26.10
2017,08,03,12,08,26.10
2017,08,03,12,09,26.00
2017,08,03,12,10,26.00
2017,08,03,12,11,26.00
2017,08,03,12,12,26.00
2017,08,03,12,13,25.90
2017,08,03,12,14,25.80
2017,08,03,12,15,25.70
2017,08,03,12,16,25.70
2017,08,03,12,17,25.80
2017,08,03,12,18,25.90
2017,08,03,12,19,26.00
2017,08,03,12,20,26.00
2017,08,03,12,21,25.90
2017,08,03,12,22,25.80
2017,08,03,12,23,25.80
2017,08,03,12,24,25.80
2017,08,03,12,25,25.80
2017,08,03,12,26,25.90
2017,08,03,12,27,25.90
2017,08,03,12,28,26.00
2017,08,03,12,29,26.00
2017,08,03,12,30,26.10
2017,08,03,12,31,26.00
2017,08,03,12,32,26.00
2017,08,03,12,33,25.90
2017,08,03,12,34,25.90
2017,08,03,12,35,25.90
2017,08,03,12,36,26.00
2017,08,03,12,37,26.00
2017,08,03,12,38,26.00
2017,08,03,12,39,26.10
2017,08,03,12,40,26.20
2017,08,03,12,41,26.30
2017,08,03,12,42,26.40
2017,08,03,12,43,26.40
2017,08,03,12,44,26.50
2017,08,03,12,45,26.60
2017,08,03,12,46,26.60
2017,08,03,12,47,26.70
2017,08,03,12,48,26.70
2017,08,03,12,49,26.60
2017,08,03,12,50,26.40
2017,08,03,12,51,26.20
2017,08,03,12,52,26.10
2017,08,03,12,53,26.10
2017,08,03,12,54,26.20
2017,08,03,12,55,26.30
2017,08,03,12,56,26.30
2017,08,03,12,57,26.30
2017,08,03,12,58,26.30
2017,08,03,12,59,26.20
2017,08,03,13,00,26.20
2017,08,03,13,01,26.30
2017,08,03,13,02,26.40
2017,08,03,13,03,26.40
2017,08,03,13,04,26.40
2017,08,03,13,05,26.50
2017,08,03,13,06,26.50
2017,08,03,13,07,26.40
2017,08,03,13,08,26.30
2017,08,03,13,09,26.40
2017,08,03,13,10,26.50
2017,08,03,13,11,26.60
2017,08,03,13,12,26.80
2017,08,03,13,13,26.80
2017,08,03,13,14,26.90
2017,08,03,13,15,27.00
2017,08,03,13,16,27.20
2017,08,03,13,17,27.30
2017,08,03,13,18,27.30
2017,08,03,13,19,27.30
2017,08,03,13,20,27.30
2017,08,03,13,21,27.30
2017,08,03,13,22,27.30
2017,08,03,13,23,27.30
2017,08,03,13,24,27.30
2017,08,03,13,25,27.30
2017,08,03,13,26,27.30
2017,08,03,13,27,27.10
2017,08,03,13,28,27.10
2017,08,03,13,29,26.90
2017,08,03,13,30,26.90
2017,08,03,13,31,27.00
2017,08,03,13,32,27.10
2017,08,03,13,33,27.10
2017,08,03,13,34,27.10
2017,08,03,13,35,27.10
2017,08,03,13,36,27.10
2017,08,03,13,37,27.10
2017,08,03,13,38,27.20
2017,08,03,13,39,27.30
2017,08,03,13,40,27.30
2017,08,03,13,41,27.30
2017,08,03,13,42,27.30
2017,08,03,13,43,27.20
2017,08,03,13,44,27.10
2017,08,03,13,45,27.00
2017,08,03,13,46,26.90
2017,08,03,13,47,26.80
2017,08,03,13,48,26.70
2017,08,03,13,49,26.70
2017,08,03,13,50,26.80
2017,08,03,13,51,26.80
2017,08,03,13,52,26.90
2017,08,03,13,53,26.90
2017,08,03,13,54,26.90
2017,08,03,13,55,27.00
2017,08,03,13,56,27.10
2017,08,03,13,57,27.20
2017,08,03,13,58,27.30
2017,08,03,13,59,27.30
2017,08,03,14,00,27.30
2017,08,03,14,01,27.30
2017,08,03,14,02,27.30
2017,08,03,14,03,27.30
2017,08,03,14,04,27.30
2017,08,03,14,05,27.50
2017,08,03,14,06,27.60
2017,08,03,14,07,27.60
2017,08,03,14,08,27.60
2017,08,03,14,09,27.60
2017,08,03,14,10,27.60
2017,08,03,14,11,27.60
2017,08,03,14,12,27.70
2017,08,03,14,13,27.70
2017,08,03,14,14,27.70
2017,08,03,14,15,27.70
2017,08,03,14,16,27.70
2017,08,03,14,17,27.70
2017,08,03,14,18,27.70
2017,08,03,14,19,27.70
2017,08,03,14,20,27.70
2017,08,03,14,21,27.70
2017,08,03,14,22,27.70
2017,08,03,14,23,27.70
2017,08,03,14,24,27.70
2017,08,03,14,25,27.70
2017,08,03,14,26,27.80
2017,08,03,14,27,27.80
2017,08,03,14,28,27.80
2017,08,03,14,29,27.90
2017,08,03,14,30,27.90
2017,08,03,14,31,28.00
2017,08,03,14,32,28.10
2017,08,03,14,33,28.10
2017,08,03,14,34,28.10
2017,08,03,14,35,28.00
2017,08,03,14,36,27.90
2017,08,03,14,37,27.90
2017,08,03,14,38,27.90
2017,08,03,14,39,27.90
2017,08,03,14,40,27.90
2017,08,03,14,41,27.90
2017,08,03,14,42,28.00
2017,08,03,14,43,28.00
2017,08,03,14,44,28.00
2017,08,03,14,45,28.00
2017,08,03,14,46,28.00
2017,08,03,14,47,28.00
2017,08,03,14,48,28.00
2017,08,03,14,49,28.00
2017,08,03,14,50,28.00
2017,08,03,14,51,27.90
2017,08,03,14,52,27.90
2017,08,03,14,53,28.00
2017,08,03,14,54,27.90
2017,08,03,14,55,27.90
2017,08,03,14,56,27.80
2017,08,03,14,57,27.70
2017,08,03,14,58,27.60
2017,08,03,14,59,27.60
2017,08,03,15,00,27.50
2017,08,03,15,01,27.40
2017,08,03,15,02,27.40
2017,08,03,15,03,27.40
2017,08,03,15,04,27.40
2017,08,03,15,05,27.40
2017,08,03,15,06,27.50
2017,08,03,15,07,27.60
2017,08,03,15,08,27.60
2017,08,03,15,09,27.70
2017,08,03,15,10,27.70
2017,08,03,15,11,27.80
2017,08,03,15,12,27.80
2017,08,03,15,13,27.90
2017,08,03,15,14,27.90
2017,08,03,15,15,28.00
2017,08,03,15,16,28.00
2017,08,03,15,17,28.10
2017,08,03,15,18,28.20
2017,08,03,15,19,28.20
2017,08,03,15,20,28.20
2017,08,03,15,21,28.20
2017,08,03,15,22,28.20
2017,08,03,15,23,28.20
2017,08,03,15,24,28.20
2017,08,03,15,25,28.20
2017,08,03,15,26,28.30
2017,08,03,15,27,28.30
2017,08,03,15,28,28.40
2017,08,03,15,29,28.40
2017,08,03,15,30,28.40
2017,08,03,15,31,28.40
2017,08,03,15,32,28.40
2017,08,03,15,33,28.30
2017,08,03,15,34,28.30
2017,08,03,15,35,28.30
2017,08,03,15,36,28.30
2017,08,03,15,37,28.30
2017,08,03,15,38,28.30
2017,08,03,15,39,28.30
2017,08,03,15,40,28.30
2017,08,03,15,41,28.20
2017,08,03,15,42,28.10
2017,08,03,15,43,28.20
2017,08,03,15,44,28.20
2017,08,03,15,45,28.20
2017,08,03,15,46,28.30
2017,08,03,15,47,28.40
2017,08,03,15,48,28.40
2017,08,03,15,49,28.40
2017,08,03,15,50,28.30
2017,08,03,15,51,28.30
2017,08,03,15,52,28.30
2017,08,03,15,53,28.30
2017,08,03,15,54,28.20
2017,08,03,15,55,28.10
2017,08,03,15,56,28.20
2017,08,03,15,57,28.20
2017,08,03,15,58,28.30
2017,08,03,15,59,28.30
2017,08,03,16,00,28.40
2017,08,03,16,01,28.40
2017,08,03,16,02,28.40
2017,08,03,16,03,28.30
2017,08,03,16,04,28.20
2017,08,03,16,05,28.20
2017,08,03,16,06,28.20
2017,08,03,16,07,28.00
2017,08,03,16,08,28.00
2017,08,03,16,09,28.00
2017,08,03,16,10,28.00
2017,08,03,16,11,28.00
2017,08,03,16,12,28.10
2017,08,03,16,13,28.10
2017,08,03,16,14,28.10
2017,08,03,16,15,28.20
2017,08,03,16,16,28.30
2017,08,03,16,17,28.40
2017,08,03,16,18,28.40
2017,08,03,16,19,28.30
2017,08,03,16,20,28.40
2017,08,03,16,21,28.40
2017,08,03,16,22,28.50
2017,08,03,16,23,28.60
2017,08,03,16,24,28.60
2017,08,03,16,25,28.60
2017,08,03,16,26,28.70
2017,08,03,16,27,28.80
2017,08,03,16,28,28.80
2017,08,03,16,29,28.90
2017,08,03,16,30,28.90
2017,08,03,16,31,28.80
2017,08,03,16,32,28.80
2017,08,03,16,33,28.70
2017,08,03,16,34,28.60
2017,08,03,16,35,28.50
2017,08,03,16,36,28.40
2017,08,03,16,37,28.30
2017,08,03,16,38,28.30
2017,08,03,16,39,28.30
2017,08,03,16,40,28.20
2017,08,03,16,41,28.20
2017,08,03,16,42,28.30
2017,08,03,16,43,28.30
2017,08,03,16,44,28.30
2017,08,03,16,45,28.40
2017,08,03,16,46,28.40
2017,08,03,16,47,28.40
2017,08,03,16,48,28.30
2017,08,03,16,49,28.30
2017,08,03,16,50,28.30
2017,08,03,16,51,28.40
2017,08,03,16,52,28.40
2017,08,03,16,53,28.40
2017,08,03,16,54,28.40
2017,08,03,16,55,28.40
2017,08,03,16,56,28.40
2017,08,03,16,57,28.40
2017,08,03,16,58,28.40
2017,08,03,16,59,28.50
2017,08,03,17,00,28.60
2017,08,03,17,01,28.70
2017,08,03,17,02,28.70
2017,08,03,17,03,28.80
2017,08,03,17,04,28.80
2017,08,03,17,05,28.70
2017,08,03,17,06,28.70
2017,08,03,17,07,28.60
2017,08,03,17,08,28.60
2017,08,03,17,09,28.40
2017,08,03,17,10,28.40
2017,08,03,17,11,28.30
2017,08,03,17,12,28.20
2017,08,03,17,13,28.20
2017,08,03,17,14,28.20
2017,08,03,17,15,28.20
2017,08,03,17,16,28.30
2017,08,03,17,17,28.30
2017,08,03,17,18,28.30
2017,08,03,17,19,28.40